MTN7476 KMQI-KORF

Flight info

Callsign MTN7476
Flight time 0h 33m
Altitude 4000
Route MCARY/N0178F070
Aircraft C208/L-SDFGR/C

Departure

Time 2026-05-06 19:28
Airport Dare County Regional Airport (KMQI)

Arrival

Time 2026-05-06 20:01
Airport Norfolk International Airport (KORF)
Time Latitude Longitude Altitude Speed Heading
2026-05-06 19:09 35.91662 -75.70175 20 ft 0 kts 130°
2026-05-06 19:21 35.91659 -75.70171 20 ft 4 kts 130°
2026-05-06 19:21 35.91618 -75.70108 20 ft 11 kts 128°
2026-05-06 19:21 35.91614 -75.70101 20 ft 0 kts 128°
2026-05-06 19:23 35.91614 -75.70095 20 ft 4 kts 73°
2026-05-06 19:24 35.91640 -75.70028 20 ft 11 kts 62°
2026-05-06 19:24 35.91660 -75.69984 20 ft 2 kts 61°
2026-05-06 19:24 35.91679 -75.69944 20 ft 10 kts 54°
2026-05-06 19:24 35.91739 -75.69877 22 ft 8 kts 39°
2026-05-06 19:25 35.91764 -75.69853 21 ft 4 kts 38°
2026-05-06 19:25 35.91817 -75.69802 22 ft 14 kts 38°
2026-05-06 19:25 35.91909 -75.69714 21 ft 15 kts 41°
2026-05-06 19:25 35.91961 -75.69664 22 ft 7 kts 36°
2026-05-06 19:26 35.92003 -75.69624 22 ft 12 kts 39°
2026-05-06 19:26 35.92097 -75.69530 23 ft 21 kts 37°
2026-05-06 19:26 35.92184 -75.69442 22 ft 9 kts 66°
2026-05-06 19:26 35.92168 -75.69388 22 ft 6 kts 128°
2026-05-06 19:27 35.92129 -75.69372 23 ft 0 kts 213°
2026-05-06 19:27 35.92087 -75.69410 23 ft 27 kts 218°
2026-05-06 19:27 35.91778 -75.69713 27 ft 83 kts 221°
2026-05-06 19:27 35.91319 -75.70155 359 ft 82 kts 225°
2026-05-06 19:28 35.90895 -75.70632 650 ft 84 kts 223°
2026-05-06 19:28 35.90558 -75.71240 926 ft 85 kts 256°
2026-05-06 19:28 35.90512 -75.71921 1274 ft 75 kts 266°
2026-05-06 19:28 35.90453 -75.72626 1455 ft 94 kts 264°
2026-05-06 19:29 35.90375 -75.73527 1601 ft 116 kts 264°
2026-05-06 19:29 35.90276 -75.74596 1737 ft 133 kts 263°
2026-05-06 19:29 35.90332 -75.75768 1861 ft 144 kts 293°
2026-05-06 19:29 35.90798 -75.76896 1987 ft 150 kts 296°
2026-05-06 19:30 35.90965 -75.78163 2104 ft 154 kts 268°
2026-05-06 19:30 35.91259 -75.79407 2216 ft 156 kts 305°
2026-05-06 19:30 35.91919 -75.80476 2340 ft 157 kts 308°
2026-05-06 19:30 35.92573 -75.81557 2461 ft 157 kts 304°
2026-05-06 19:31 35.93446 -75.82339 2574 ft 159 kts 342°
2026-05-06 19:31 35.94534 -75.82573 2703 ft 159 kts 353°
2026-05-06 19:31 35.96729 -75.82850 2951 ft 158 kts 353°
2026-05-06 19:32 35.97827 -75.82983 3078 ft 159 kts 353°
2026-05-06 19:32 35.98925 -75.83118 3202 ft 159 kts 353°
2026-05-06 19:32 36.00001 -75.83399 3327 ft 158 kts 340°
2026-05-06 19:32 36.00979 -75.84008 3453 ft 158 kts 326°
2026-05-06 19:33 36.01831 -75.84834 3577 ft 158 kts 317°
2026-05-06 19:33 36.02606 -75.85777 3700 ft 157 kts 312°
2026-05-06 19:33 36.03337 -75.86778 3770 ft 156 kts 302°
2026-05-06 19:33 36.04043 -75.87795 3900 ft 155 kts 301°
2026-05-06 19:34 36.04747 -75.88812 3978 ft 157 kts 302°
2026-05-06 19:34 36.05462 -75.89860 3989 ft 161 kts 301°
2026-05-06 19:34 36.06179 -75.90935 3991 ft 163 kts 301°
2026-05-06 19:34 36.06892 -75.92026 3992 ft 164 kts 300°
2026-05-06 19:35 36.07609 -75.93123 3990 ft 164 kts 300°
2026-05-06 19:35 36.08330 -75.94221 3989 ft 165 kts 301°
2026-05-06 19:35 36.09055 -75.95317 3990 ft 165 kts 301°
2026-05-06 19:35 36.09784 -75.96415 3992 ft 165 kts 301°
2026-05-06 19:36 36.10511 -75.97517 3994 ft 166 kts 301°
2026-05-06 19:36 36.11241 -75.98621 3994 ft 166 kts 301°
2026-05-06 19:36 36.11973 -75.99727 3993 ft 166 kts 301°
2026-05-06 19:36 36.12705 -76.00833 3995 ft 166 kts 301°
2026-05-06 19:37 36.13437 -76.01940 3998 ft 166 kts 301°
2026-05-06 19:37 36.14171 -76.03049 4001 ft 167 kts 301°
2026-05-06 19:37 36.14905 -76.04158 4004 ft 167 kts 301°
2026-05-06 19:37 36.15640 -76.05268 4004 ft 167 kts 301°
2026-05-06 19:38 36.16376 -76.06381 4004 ft 167 kts 301°
2026-05-06 19:38 36.17109 -76.07489 4005 ft 166 kts 301°
2026-05-06 19:38 36.17840 -76.08592 4000 ft 165 kts 300°
2026-05-06 19:38 36.18565 -76.09685 3988 ft 163 kts 300°
2026-05-06 19:39 36.19290 -76.10754 3988 ft 161 kts 300°
2026-05-06 19:39 36.20003 -76.11808 3995 ft 159 kts 300°
2026-05-06 19:39 36.20698 -76.12862 3996 ft 157 kts 299°
2026-05-06 19:39 36.21383 -76.13914 4002 ft 157 kts 299°
2026-05-06 19:40 36.22068 -76.14964 3999 ft 157 kts 298°
2026-05-06 19:40 36.22754 -76.16019 4003 ft 158 kts 298°
2026-05-06 19:40 36.23445 -76.17079 4006 ft 158 kts 299°
2026-05-06 19:40 36.24141 -76.18143 4010 ft 160 kts 299°
2026-05-06 19:41 36.24844 -76.19214 4015 ft 161 kts 299°
2026-05-06 19:41 36.25552 -76.20291 4012 ft 162 kts 299°
2026-05-06 19:41 36.26265 -76.21373 4006 ft 162 kts 299°
2026-05-06 19:41 36.26977 -76.22455 4001 ft 162 kts 299°
2026-05-06 19:42 36.27687 -76.23533 3999 ft 161 kts 299°
2026-05-06 19:42 36.28395 -76.24609 3999 ft 161 kts 299°
2026-05-06 19:42 36.29103 -76.25684 4000 ft 161 kts 299°
2026-05-06 19:42 36.29800 -76.26744 4004 ft 161 kts 299°
2026-05-06 19:43 36.30507 -76.27820 4003 ft 161 kts 299°
2026-05-06 19:43 36.31213 -76.28898 4002 ft 161 kts 299°
2026-05-06 19:43 36.31921 -76.29976 4004 ft 162 kts 299°
2026-05-06 19:43 36.32633 -76.31059 4005 ft 162 kts 299°
2026-05-06 19:44 36.33346 -76.32146 4003 ft 163 kts 299°
2026-05-06 19:44 36.34061 -76.33234 3995 ft 163 kts 299°
2026-05-06 19:44 36.34773 -76.34319 3990 ft 162 kts 299°
2026-05-06 19:44 36.35510 -76.35375 3990 ft 165 kts 309°
2026-05-06 19:45 36.36595 -76.35978 3993 ft 182 kts 347°
2026-05-06 19:45 36.37858 -76.35648 3999 ft 191 kts 18°
2026-05-06 19:45 36.39092 -76.35030 4002 ft 191 kts 17°
2026-05-06 19:45 36.40339 -76.34457 4004 ft 191 kts 15°
2026-05-06 19:46 36.41592 -76.33894 4000 ft 192 kts 15°
2026-05-06 19:46 36.42848 -76.33333 3994 ft 192 kts 15°
2026-05-06 19:46 36.44107 -76.32770 4005 ft 193 kts 15°
2026-05-06 19:46 36.45389 -76.32307 4011 ft 190 kts 359°
2026-05-06 19:47 36.46698 -76.32200 3995 ft 192 kts
2026-05-06 19:47 36.47971 -76.31664 3995 ft 195 kts 20°
2026-05-06 19:47 36.49204 -76.30947 3988 ft 196 kts 21°
2026-05-06 19:47 36.50438 -76.30220 3989 ft 196 kts 20°
2026-05-06 19:48 36.51678 -76.29534 3989 ft 196 kts 19°
2026-05-06 19:48 36.52938 -76.28879 3987 ft 197 kts 18°
2026-05-06 19:48 36.54214 -76.28251 3980 ft 197 kts 17°
2026-05-06 19:48 36.55487 -76.27648 3977 ft 195 kts 17°
2026-05-06 19:49 36.56756 -76.27058 3986 ft 195 kts 15°
2026-05-06 19:49 36.58037 -76.26471 3985 ft 196 kts 15°
2026-05-06 19:49 36.59311 -76.25893 3978 ft 194 kts 16°
2026-05-06 19:49 36.60581 -76.25314 3984 ft 195 kts 16°
2026-05-06 19:50 36.61839 -76.24741 3982 ft 195 kts 15°
2026-05-06 19:50 36.63127 -76.24158 3981 ft 194 kts 15°
2026-05-06 19:50 36.64373 -76.23594 3977 ft 193 kts 15°
2026-05-06 19:50 36.65634 -76.23018 3976 ft 193 kts 16°
2026-05-06 19:51 36.66895 -76.22443 3985 ft 193 kts 15°
2026-05-06 19:51 36.68160 -76.21871 3991 ft 194 kts 15°
2026-05-06 19:51 36.69422 -76.21297 3982 ft 193 kts 15°
2026-05-06 19:51 36.70679 -76.20727 3986 ft 192 kts 16°
2026-05-06 19:52 36.71929 -76.20156 3997 ft 192 kts 15°
2026-05-06 19:52 36.73180 -76.19587 3997 ft 191 kts 14°
2026-05-06 19:52 36.74426 -76.19022 4001 ft 191 kts 15°
2026-05-06 19:52 36.75675 -76.18450 4002 ft 192 kts 15°
2026-05-06 19:53 36.76931 -76.17877 4002 ft 192 kts 15°
2026-05-06 19:53 36.78184 -76.17306 4002 ft 192 kts 15°
2026-05-06 19:53 36.79438 -76.16734 3984 ft 192 kts 15°
2026-05-06 19:53 36.80686 -76.16165 3982 ft 189 kts 15°
2026-05-06 19:54 36.81918 -76.15602 3979 ft 188 kts 15°
2026-05-06 19:54 36.83140 -76.15044 3980 ft 187 kts 16°
2026-05-06 19:54 36.84361 -76.14486 3983 ft 187 kts 15°
2026-05-06 19:54 36.85583 -76.13934 3982 ft 186 kts 11°
2026-05-06 19:55 36.86840 -76.13797 3961 ft 184 kts 360°
2026-05-06 19:55 36.88102 -76.13402 3911 ft 188 kts
2026-05-06 19:55 36.89362 -76.13450 3866 ft 181 kts 345°
2026-05-06 19:55 36.90614 -76.13570 3881 ft 178 kts 343°
2026-05-06 19:56 36.91708 -76.14083 3867 ft 166 kts 322°
2026-05-06 19:56 36.92911 -76.14217 3690 ft 186 kts
2026-05-06 19:56 36.94127 -76.13679 3532 ft 185 kts 22°
2026-05-06 19:56 36.95247 -76.13184 3383 ft 157 kts 352°
2026-05-06 19:57 36.96092 -76.13573 3226 ft 111 kts 295°
2026-05-06 19:57 36.96291 -76.14325 3071 ft 80 kts 232°
2026-05-06 19:57 36.95860 -76.14626 2934 ft 66 kts 207°
2026-05-06 19:57 36.95426 -76.14727 2699 ft 65 kts 199°
2026-05-06 19:58 36.94983 -76.14857 2404 ft 65 kts 205°
2026-05-06 19:58 36.94570 -76.15076 2112 ft 64 kts 213°
2026-05-06 19:58 36.94161 -76.15358 1868 ft 71 kts 212°
2026-05-06 19:58 36.93739 -76.15717 1636 ft 75 kts 221°
2026-05-06 19:59 36.93321 -76.16138 1336 ft 80 kts 223°
2026-05-06 19:59 36.92891 -76.16596 983 ft 82 kts 221°
2026-05-06 19:59 36.92433 -76.17090 595 ft 90 kts 220°
2026-05-06 19:59 36.91937 -76.17596 378 ft 90 kts 216°
2026-05-06 20:00 36.91446 -76.18060 292 ft 86 kts 217°
2026-05-06 20:00 36.91010 -76.18485 218 ft 73 kts 217°
2026-05-06 20:00 36.90608 -76.18869 98 ft 72 kts 219°
2026-05-06 20:00 36.90233 -76.19236 48 ft 65 kts 218°
2026-05-06 20:01 36.89903 -76.19558 33 ft 46 kts 217°
2026-05-06 20:01 36.89728 -76.19728 33 ft 28 kts 219°
2026-05-06 20:01 36.89715 -76.19858 34 ft 13 kts 333°
2026-05-06 20:01 36.89721 -76.19861 34 ft 0 kts 342°
2026-05-06 20:02 36.89741 -76.19881 34 ft 7 kts 290°
2026-05-06 20:02 36.89717 -76.19957 36 ft 10 kts 219°
2026-05-06 20:02 36.89702 -76.19972 37 ft 7 kts 217°
2026-05-06 20:02 36.89605 -76.20066 36 ft 26 kts 218°
2026-05-06 20:03 36.89461 -76.20204 38 ft 26 kts 218°
2026-05-06 20:03 36.89309 -76.20349 36 ft 28 kts 217°
2026-05-06 20:03 36.89160 -76.20485 33 ft 23 kts 212°
2026-05-06 20:03 36.89151 -76.20613 33 ft 16 kts 255°
2026-05-06 20:04 36.89124 -76.20639 33 ft 5 kts 218°